Regional Weather Roundup
Issued by NWS Bismarck, ND

Home | Current Version | Previous Version | Text Only | Print | Product List | Glossary On
Versions: 1 2 3 4 5 6 7 8 9 10 11 12 13 14 15 16 17 18 19 20 21 22 23 24 25 26 27 28 29 30 31 32 33 34 35 36 37 38 39 40 41 42 43 44 45 46 47 48 49 50
000
ASUS43 KBIS 220020
RWRBIS

NWR BROADCAST TEXT
NATIONAL WEATHER SERVICE BISMARCK ND
700 PM CDT THU AUG 21 2014

NOTE: "FAIR" INDICATES FEW OR NO CLOUDS BELOW 12,000 FEET WITH NO
SIGNIFICANT WEATHER AND/OR OBSTRUCTIONS TO VISIBILITY.


CITY           SKY/WX    TMP DP  RH WIND       PRES   REMARKS
WILLISTON      PTSUNNY   76  56  49 NE9       29.96S
MINOT          MOSUNNY   72  62  71 NW12      29.91R
MINOT AFB      MOSUNNY   73  64  73 N10       29.92R
BISMARCK       SUNNY     80  62  54 NW14      29.91R
DICKINSON      MOSUNNY   71  60  68 N12       29.96R
GARRISON         N/A     78  59  51 NW9       29.92R
HETTINGER ARPT PTSUNNY   75  59  57 N10       29.96R
JAMESTOWN      MOSUNNY   78  68  71 N9        29.85R
BEACH            N/A     70  63  78 NE8       29.99R
CARRINGTON     FAIR      75  72  88 NW13      29.88S
CROSBY         FAIR      68  61  77 N6        29.98R
HARVEY         FAIR      77  64  65 NW13      29.89R
HAZEN          FAIR      72  61  68 NW9       29.94R
LINTON         FAIR      77  64  65 N8        29.91R
MANDAN         FAIR      75  63  64 N12G17    29.93R
RUGBY          FAIR      73  66  78 N6        29.89R
STANLEY        MOCLDY    70  63  78 N9        29.97R
TIOGA          FAIR      68  63  83 N10       30.01R
WATFORD CITY   FAIR      73  57  56 N7        29.95S
$$

CITY           SKY/WX    TMP DP  RH WIND       PRES   REMARKS
GRAND FORKS    CLOUDY    77  68  73 CALM      29.82R
GRAND FORKS AF LGT RAIN  73  73 100 N5        29.84R FOG
DEVILS LAKE    SUNNY     73  64  73 N16       29.86R
FARGO          MOSUNNY   77  70  79 E3        29.81S
CANDO          FAIR      70  66  88 N8        29.89R
CAVALIER       CLOUDY    72  66  83 NE7       29.86R
GRAFTON        MOCLDY    73  68  83 N5        29.84R
GWINNER        CLEAR     79  72  78 N5        29.86R
LANGDON          N/A     66  64  94 NE16G23   29.88R THUNDER
ROLLA          FAIR      68  68 100 NE12      29.92R
WALHALLA         N/A     72  72 100 NE3       29.86S
$$

CITY           SKY/WX    TMP DP  RH WIND       PRES   REMARKS
ABERDEEN       SUNNY     80  66  62 N10       29.87R
MOBRIDGE       SUNNY     80  64  58 N9        29.88R
BUFFALO          N/A     76  56  49 NE20      29.90S
RAPID CITY     PTSUNNY   80  60  50 N7        29.95S
GLASGOW        RAIN      61  60  97 NE8       30.03S FOG
SIDNEY         MOSUNNY   73  61  64 E6        29.98S
WOLF POINT     TSTM      63  59  87 W9        30.01R VSB 3/4
GLENDIVE       MOSUNNY   68  61  77 NE8       30.00R
MILES CITY     LGT RAIN  71  58  63 NW7       29.99R
BAKER          PTSUNNY   76  57  51 NE7       29.98S
$$

CITY           SKY/WX    TMP DP  RH WIND       PRES   REMARKS
BILLINGS       LGT RAIN  60  58  92 N6        30.09R
GREAT FALLS    CLOUDY    64  49  57 N13       30.10R
REGINA         PTSUNNY   64  55  72 N13G20    30.04R
ESTEVAN        PTSUNNY   70  57  64 N7        29.97R
$$



USA.gov is the U.S. government's official web portal to all federal, state and local government web resources and services.